{"data":{"norad_id":66928,"epoch":"2026-09-20T10:33:06.730272Z","epoch_age_seconds":89636,"freshness":"FRESH","line1":"1 66928U 25286D   26263.43966123  .00005929  00000+0  18653-3 0  9997","line2":"2 66928  53.1561 170.3281 0002249  76.7634 283.3620 15.34391502 45282","mean_motion":15.34391502,"eccentricity":0.0002249,"inclination_deg":53.1561,"raan_deg":170.3281,"arg_perigee_deg":76.7634,"mean_anomaly_deg":283.362,"bstar":0.00018653,"rev_number":4528,"period_min":93.848277843238,"perigee_km":461.18998752001,"apogee_km":464.26700882109,"semimajor_km":6840.8654981705,"source":"CELESTRAK","updated_at":"2026-09-21T09:00:36.056151Z"}}